English version Home page |
Updated on April 4, 2021 |
|
軌道要素Epoch 2018 Aug. 30.0 TT = JDT 2458360.5 T 2018 Sept. 10.27736 TT Rudenko q 1.0128277 (2000.0) P Q n 0.15063436 Peri. 172.86052 +0.98463333 -0.10352110 a 3.4982703 Node 195.39192 +0.12219740 +0.98377109 e 0.7104776 Incl. 31.99803 +0.12475976 -0.14655317 P 6.54 From 7387 observations 1900 Dec. 25-2020 Jan. 30, mean residual 1".0. Nongravitational parameters A1 = +0.00, A2 = -0.0838.
|
星図
|
光度変化m1 = 9.0 + 5 logΔ + 20.0 log r(t + 8) [ , 0] ( 〜2018年 9月10日) m1 = 9.0 + 5 logΔ + 16.0 log r(t + 8) [ 0,190] (2018年 9月10日〜2019年 3月19日) m1 = 11.5 + 5 logΔ + 10.0 log r [190, ] (2019年 3月19日〜 )
|
軌道要素はM.P.E.C. 2021-F20に掲載されたものです。
|